London-Corbin, KY

9:18 AM EST on December 08, 2019 (GMT -0500)
London-Corbin / McKee

Weather History for KLOZ - May, 2019

Change the Weather History Date:

Wednesday, May 29, 2019

  Actual Average Record
Temperature  
Mean Temperature 77 °F 68 °F  
Max Temperature 88 °F 79 °F 90 °F (1987)
Min Temperature 66 °F 57 °F 43 °F (1968)
Degree Days  
Heating Degree Days 0 1  
Month to date heating degree days 44 92  
Since 1 July heating degree days 4024 4193  
Cooling Degree Days 12 5  
Month to date cooling degree days 154 78  
Year to date cooling degree days 166 104  
Growing Degree Days 26 (Base 50)    
Moisture  
Dew Point 67 °F    
Average Humidity 80    
Maximum Humidity 100    
Minimum Humidity 59    
Precipitation  
Precipitation 0.03 in 0.18 in 1.46 in (1992)
Sea Level Pressure  
Sea Level Pressure 29.87 in    
Wind  
Wind Speed 7 mph (SW)    
Max Wind Speed 23 mph    
Max Gust Speed 41 mph    
Visibility 10 miles    
Events Rain , Thunderstorm    
T = Trace of Precipitation, MM = Missing Value Source: NWS Daily Summary

Daily Weather History Graph

Daily Weather History Graph

Search for Another Location

Airport or City:

Astronomy

May. 29, 2019 Rise Set
Actual Time 6:19 AM EDT 8:48 PM EDT
Civil Twilight 5:49 AM EDT 9:18 PM EDT
Nautical Twilight 5:11 AM EDT 9:55 PM EDT
Astronomical Twilight 4:30 AM EDT 10:37 PM EDT
Moon 3:48 AM EDT (5/29) 4:03 PM EDT (5/29)
Length of Visible Light 15h 29m
Length of Day
14h 29m
Waning Crescent, 23% of the Moon is Illuminated
May 29
Waning Crescent
Jun 3
New
Jun 10
First Quarter
Jun 17
Full
Jun 25
Last Quarter

Hourly Weather History & Observations

Time (EDT) Temp. Heat Index Dew Point Humidity Pressure Visibility Wind Dir Wind Speed Gust Speed Precip Events Conditions
12:53 AM 73.9 °F - 66.9 °F 79% 29.84 in 10.0 mi South 4.6 mph - N/A   Clear
1:53 AM 73.9 °F - 68.0 °F 82% 29.85 in 10.0 mi SSW 3.5 mph - N/A   Scattered Clouds
2:53 AM 73.0 °F - 68.0 °F 84% 29.84 in 10.0 mi SSW 5.8 mph - N/A   Mostly Cloudy
3:53 AM 73.0 °F - 68.0 °F 84% 29.85 in 10.0 mi SW 3.5 mph - N/A   Clear
4:53 AM 73.0 °F - 66.9 °F 81% 29.85 in 10.0 mi SW 4.6 mph - N/A   Clear
5:53 AM 73.0 °F - 68.0 °F 84% 29.86 in 10.0 mi South 4.6 mph - N/A   Mostly Cloudy
6:53 AM 73.0 °F - 66.9 °F 81% 29.85 in 10.0 mi SSW 5.8 mph - N/A   Partly Cloudy
7:53 AM 75.0 °F - 66.9 °F 76% 29.87 in 10.0 mi SSW 5.8 mph - N/A   Scattered Clouds
8:53 AM 77.0 °F - 68.0 °F 74% 29.88 in 10.0 mi SW 11.5 mph - N/A   Scattered Clouds
9:53 AM 80.1 °F 82.7 °F 68.0 °F 67% 29.89 in 10.0 mi SW 11.5 mph - N/A   Clear
10:53 AM 81.0 °F 84.1 °F 69.1 °F 67% 29.88 in 10.0 mi WSW 10.4 mph 23.0 mph N/A   Partly Cloudy
11:53 AM 82.9 °F 87.0 °F 70.0 °F 65% 29.87 in 10.0 mi SW 10.4 mph 16.1 mph N/A   Mostly Cloudy
12:53 PM 84.9 °F 88.8 °F 69.1 °F 59% 29.84 in 10.0 mi SSW 12.7 mph 27.6 mph N/A   Scattered Clouds
1:53 PM 84.9 °F 88.2 °F 68.0 °F 57% 29.84 in 10.0 mi WSW 17.3 mph 27.6 mph N/A   Scattered Clouds
2:53 PM 84.9 °F 88.2 °F 68.0 °F 57% 29.87 in 10.0 mi West 17.3 mph 29.9 mph N/A   Mostly Cloudy
2:58 PM 78.1 °F - 66.9 °F 68% 29.94 in 10.0 mi NNW 18.4 mph 38.0 mph N/A Thunderstorm Mostly Cloudy
3:06 PM 72.0 °F - 64.0 °F 76% 29.95 in 10.0 mi NNW 16.1 mph 31.1 mph N/A Thunderstorm Thunderstorm
3:13 PM 70.0 °F - 64.9 °F 84% 29.95 in 10.0 mi NNW 17.3 mph 40.3 mph 0.00 in Rain , Thunderstorm Light Thunderstorms and Rain
3:28 PM 68.0 °F - 64.9 °F 90% 29.95 in 9.0 mi NW 9.2 mph 24.2 mph 0.03 in Rain Light Rain
3:53 PM 70.0 °F - 66.9 °F 90% 29.91 in 10.0 mi North 6.9 mph - 0.03 in   Scattered Clouds
4:53 PM 72.0 °F - 66.0 °F 81% 29.87 in 10.0 mi East 6.9 mph - N/A   Clear
5:53 PM 71.1 °F - 66.0 °F 84% 29.86 in 10.0 mi SE 5.8 mph - N/A   Clear
6:53 PM 73.0 °F - 66.9 °F 81% 29.84 in 10.0 mi SE 5.8 mph - N/A   Clear
7:53 PM 73.0 °F - 66.0 °F 79% 29.83 in 10.0 mi ENE 3.5 mph - N/A   Clear
8:53 PM 70.0 °F - 66.9 °F 90% 29.83 in 10.0 mi NNE 4.6 mph - N/A   Clear
9:53 PM 69.1 °F - 66.9 °F 93% 29.85 in 10.0 mi SE 3.5 mph - N/A   Clear
10:53 PM 68.0 °F - 66.0 °F 93% 29.86 in 10.0 mi Calm Calm - N/A   Clear
11:53 PM 66.9 °F - 66.0 °F 97% 29.87 in 10.0 mi Calm Calm - N/A   Clear